Time,TemperatureF,DewpointF,PressureIn,WindDirection,WindDirectionDegrees,WindSpeedMPH,WindSpeedGustMPH,Humidity,HourlyPrecipIn,Conditions,Clouds,dailyrainin,SoftwareType,DateUTC
2013-02-13 00:02:00,11.0,3.0,-100.00,SE,127,11.0,16.0,71,0.00,,,-99.99,,2013-02-13 07:02:00,
2013-02-13 00:11:00,16.0,6.0,-100.00,SE,127,11.0,16.0,63,0.00,,,-99.99,,2013-02-13 07:11:00,
2013-02-13 00:21:00,14.0,5.0,-100.00,ESE,109,7.0,13.0,66,0.00,,,-99.99,,2013-02-13 07:21:00,
2013-02-13 00:31:00,10.0,2.0,-100.00,East,90,6.0,11.0,69,0.00,,,-99.99,,2013-02-13 07:31:00,
2013-02-13 00:41:00,11.0,5.0,-100.00,East,88,6.0,11.0,75,0.00,,,-99.99,,2013-02-13 07:41:00,
2013-02-13 00:51:00,18.0,9.0,-100.00,ESE,114,7.0,19.0,68,0.00,,,-99.99,,2013-02-13 07:51:00,
2013-02-13 01:01:00,14.0,4.0,-100.00,East,92,4.0,8.0,65,0.00,,,-99.99,,2013-02-13 08:01:00,
2013-02-13 01:11:00,18.0,9.0,-100.00,NE,55,9.0,15.0,68,0.00,,,-99.99,,2013-02-13 08:11:00,
2013-02-13 01:21:00,14.0,7.0,-100.00,ENE,58,11.0,21.0,72,0.00,,,-99.99,,2013-02-13 08:21:00,
2013-02-13 01:32:00,14.0,8.0,-100.00,ENE,66,11.0,18.0,74,0.00,,,-99.99,,2013-02-13 08:32:00,
2013-02-13 01:43:00,19.0,10.0,-100.00,East,100,4.0,9.0,67,0.00,,,-99.99,,2013-02-13 08:43:00,
2013-02-13 01:52:00,21.0,10.0,-100.00,SSE,164,6.0,13.0,61,0.00,,,-99.99,,2013-02-13 08:52:00,
2013-02-13 02:01:00,22.0,11.0,-100.00,South,185,8.0,17.0,61,0.00,,,-99.99,,2013-02-13 09:01:00,
2013-02-13 02:11:00,22.0,11.0,-100.00,South,189,7.0,12.0,61,0.00,,,-99.99,,2013-02-13 09:11:00,
2013-02-13 02:21:00,7.0,1.0,-100.00,East,93,9.0,14.0,77,0.00,,,-99.99,,2013-02-13 09:21:00,
2013-02-13 02:31:00,7.0,2.0,-100.00,ENE,65,11.0,16.0,78,0.00,,,-99.99,,2013-02-13 09:31:00,
2013-02-13 02:41:00,5.0,0.0,-100.00,ENE,69,9.0,12.0,81,0.00,,,-99.99,,2013-02-13 09:41:00,
2013-02-13 02:51:00,5.0,1.0,-100.00,ENE,75,7.0,11.0,83,0.00,,,-99.99,,2013-02-13 09:51:00,
2013-02-13 03:01:00,9.0,4.0,-100.00,East,100,4.0,9.0,79,0.00,,,-99.99,,2013-02-13 10:01:00,
2013-02-13 03:11:00,10.0,2.0,-100.00,East,88,5.0,11.0,72,0.00,,,-99.99,,2013-02-13 10:11:00,
2013-02-13 03:21:00,11.0,5.0,-100.00,East,88,4.0,9.0,77,0.00,,,-99.99,,2013-02-13 10:21:00,
2013-02-13 03:32:00,10.0,5.0,-100.00,ENE,68,6.0,13.0,80,0.00,,,-99.99,,2013-02-13 10:32:00,
2013-02-13 03:41:00,9.0,6.0,-100.00,ENE,78,4.0,8.0,83,0.00,,,-99.99,,2013-02-13 10:41:00,
2013-02-13 03:51:00,12.0,7.0,-100.00,SE,124,3.0,7.0,80,0.00,,,-99.99,,2013-02-13 10:51:00,
2013-02-13 04:01:00,13.0,7.0,-100.00,SW,227,3.0,7.0,76,0.00,,,-99.99,,2013-02-13 11:01:00,
2013-02-13 04:11:00,13.0,7.0,-100.00,NE,49,2.0,7.0,78,0.00,,,-99.99,,2013-02-13 11:11:00,
2013-02-13 04:22:00,11.0,6.0,-100.00,NNW,340,4.0,7.0,80,0.00,,,-99.99,,2013-02-13 11:22:00,
2013-02-13 04:32:00,12.0,7.0,-100.00,North,1,2.0,6.0,81,0.00,,,-99.99,,2013-02-13 11:32:00,
2013-02-13 04:42:00,10.0,6.0,-100.00,East,95,4.0,8.0,81,0.00,,,-99.99,,2013-02-13 11:42:00,
2013-02-13 04:52:00,8.0,4.0,-100.00,East,79,6.0,11.0,84,0.00,,,-99.99,,2013-02-13 11:52:00,
2013-02-13 05:02:00,8.0,4.0,-100.00,ENE,71,4.0,7.0,84,0.00,,,-99.99,,2013-02-13 12:02:00,
2013-02-13 05:11:00,7.0,4.0,-100.00,NNW,339,1.0,4.0,87,0.00,,,-99.99,,2013-02-13 12:11:00,
2013-02-13 05:21:00,9.0,6.0,-100.00,North,352,3.0,7.0,88,0.00,,,-99.99,,2013-02-13 12:21:00,
2013-02-13 05:32:00,9.0,7.0,-100.00,North,359,4.0,7.0,88,0.00,,,-99.99,,2013-02-13 12:32:00,
2013-02-13 05:42:00,10.0,7.0,-100.00,NNE,25,4.0,7.0,86,0.00,,,-99.99,,2013-02-13 12:42:00,
2013-02-13 05:52:00,10.0,7.0,-100.00,North,349,1.0,3.0,87,0.00,,,-99.99,,2013-02-13 12:52:00,
2013-02-13 06:02:00,9.0,6.0,-100.00,NW,322,2.0,4.0,87,0.00,,,-99.99,,2013-02-13 13:02:00,
2013-02-13 06:11:00,9.0,6.0,-100.00,North,10,1.0,2.0,88,0.00,,,-99.99,,2013-02-13 13:11:00,
2013-02-13 06:21:00,8.0,6.0,-100.00,NNW,347,1.0,2.0,88,0.00,,,-99.99,,2013-02-13 13:21:00,
2013-02-13 06:32:00,10.0,8.0,-100.00,NNW,335,4.0,11.0,89,0.00,,,-99.99,,2013-02-13 13:32:00,
2013-02-13 06:41:00,13.0,8.0,-100.00,SE,131,4.0,9.0,81,0.00,,,-99.99,,2013-02-13 13:41:00,
2013-02-13 06:51:00,10.0,5.0,-100.00,ENE,75,6.0,8.0,81,0.00,,,-99.99,,2013-02-13 13:51:00,
2013-02-13 07:01:00,11.0,7.0,-100.00,NNE,18,7.0,11.0,82,0.00,,,-99.99,,2013-02-13 14:01:00,
2013-02-13 07:11:00,12.0,7.0,-100.00,NNE,14,8.0,12.0,80,0.00,,,-99.99,,2013-02-13 14:11:00,
2013-02-13 07:21:00,16.0,8.0,-100.00,NW,318,7.0,17.0,71,0.00,,,-99.99,,2013-02-13 14:21:00,
2013-02-13 07:31:00,25.0,10.0,-100.00,NW,308,14.0,32.0,52,0.00,,,-99.99,,2013-02-13 14:31:00,
2013-02-13 07:41:00,19.0,11.0,-100.00,SSE,168,10.0,29.0,70,0.00,,,-99.99,,2013-02-13 14:41:00,
2013-02-13 07:52:00,24.0,11.0,-100.00,SSW,202,7.0,17.0,56,0.00,,,-99.99,,2013-02-13 14:52:00,
2013-02-13 08:01:00,26.0,11.0,-100.00,SSE,154,9.0,27.0,52,0.00,,,-99.99,,2013-02-13 15:01:00,
2013-02-13 08:11:00,26.0,12.0,-100.00,East,79,7.0,20.0,54,0.00,,,-99.99,,2013-02-13 15:11:00,
2013-02-13 08:21:00,26.0,13.0,-100.00,SSW,193,13.0,27.0,58,0.00,,,-99.99,,2013-02-13 15:21:00,
2013-02-13 08:32:00,26.0,14.0,-100.00,South,188,11.0,22.0,58,0.00,,,-99.99,,2013-02-13 15:32:00,
2013-02-13 08:42:00,25.0,14.0,-100.00,SW,215,12.0,19.0,63,0.00,,,-99.99,,2013-02-13 15:42:00,
2013-02-13 08:51:00,25.0,13.0,-100.00,SSW,209,9.0,16.0,60,0.00,,,-99.99,,2013-02-13 15:51:00,
2013-02-13 09:01:00,25.0,15.0,-100.00,South,184,11.0,17.0,63,0.00,,,-99.99,,2013-02-13 16:01:00,
2013-02-13 09:11:00,25.0,14.0,-100.00,SSW,193,17.0,23.0,64,0.00,,,-99.99,,2013-02-13 16:11:00,
2013-02-13 09:21:00,25.0,14.0,-100.00,South,189,14.0,22.0,63,0.00,,,-99.99,,2013-02-13 16:21:00,
2013-02-13 09:31:00,25.0,14.0,-100.00,SSW,200,11.0,17.0,62,0.00,,,-99.99,,2013-02-13 16:31:00,
2013-02-13 09:42:00,25.0,15.0,-100.00,SSW,213,16.0,26.0,65,0.00,,,-99.99,,2013-02-13 16:42:00,
2013-02-13 09:51:00,26.0,15.0,-100.00,WSW,247,17.0,34.0,64,0.00,,,-99.99,,2013-02-13 16:51:00,
2013-02-13 10:01:00,26.0,15.0,-100.00,West,271,30.0,39.0,63,0.00,,,-99.99,,2013-02-13 17:01:00,
2013-02-13 10:11:00,26.0,16.0,-100.00,West,275,27.0,38.0,65,0.00,,,-99.99,,2013-02-13 17:11:00,
2013-02-13 10:21:00,26.0,16.0,-100.00,West,274,31.0,42.0,66,0.00,,,-99.99,,2013-02-13 17:21:00,
2013-02-13 10:31:00,26.0,16.0,-100.00,West,272,31.0,41.0,67,0.00,,,-99.99,,2013-02-13 17:31:00,
2013-02-13 10:41:00,26.0,15.0,-100.00,West,277,29.0,37.0,65,0.00,,,-99.99,,2013-02-13 17:41:00,
2013-02-13 10:52:00,26.0,16.0,-100.00,West,277,29.0,38.0,68,0.00,,,-99.99,,2013-02-13 17:52:00,
2013-02-13 11:01:00,26.0,17.0,-100.00,West,272,32.0,40.0,68,0.00,,,-99.99,,2013-02-13 18:01:00,
2013-02-13 11:11:00,26.0,16.0,-100.00,West,270,37.0,45.0,66,0.00,,,-99.99,,2013-02-13 18:11:00,
2013-02-13 11:22:00,26.0,15.0,-100.00,West,275,37.0,48.0,63,0.00,,,-99.99,,2013-02-13 18:22:00,
2013-02-13 11:32:00,26.0,16.0,-100.00,West,277,37.0,48.0,64,0.00,,,-99.99,,2013-02-13 18:32:00,
2013-02-13 11:41:00,27.0,17.0,-100.00,West,275,34.0,41.0,65,0.00,,,-99.99,,2013-02-13 18:41:00,
2013-02-13 11:52:00,27.0,17.0,-100.00,West,281,35.0,45.0,66,0.00,,,-99.99,,2013-02-13 18:52:00,
2013-02-13 12:01:00,27.0,16.0,-100.00,West,278,37.0,47.0,65,0.00,,,-99.99,,2013-02-13 19:01:00,
2013-02-13 12:11:00,27.0,17.0,-100.00,West,278,34.0,45.0,64,0.00,,,-99.99,,2013-02-13 19:11:00,
2013-02-13 12:21:00,27.0,16.0,-100.00,West,277,34.0,45.0,64,0.00,,,-99.99,,2013-02-13 19:21:00,
2013-02-13 12:31:00,27.0,17.0,-100.00,West,275,34.0,44.0,66,0.00,,,-99.99,,2013-02-13 19:31:00,
2013-02-13 12:41:00,27.0,17.0,-100.00,West,275,34.0,45.0,66,0.00,,,-99.99,,2013-02-13 19:41:00,
2013-02-13 12:51:00,27.0,16.0,-100.00,West,278,33.0,40.0,64,0.00,,,-99.99,,2013-02-13 19:51:00,
2013-02-13 13:02:00,27.0,17.0,-100.00,West,277,33.0,44.0,65,0.00,,,-99.99,,2013-02-13 20:02:00,
2013-02-13 13:11:00,27.0,18.0,-100.00,West,280,30.0,42.0,70,0.00,,,-99.99,,2013-02-13 20:11:00,
2013-02-13 13:21:00,26.0,18.0,-100.00,West,275,34.0,51.0,70,0.00,,,-99.99,,2013-02-13 20:21:00,
2013-02-13 13:31:00,27.0,18.0,-100.00,West,275,34.0,45.0,69,0.00,,,-99.99,,2013-02-13 20:31:00,
2013-02-13 13:41:00,27.0,18.0,-100.00,West,274,35.0,45.0,70,0.00,,,-99.99,,2013-02-13 20:41:00,
2013-02-13 13:52:00,27.0,17.0,-100.00,West,277,34.0,42.0,65,0.00,,,-99.99,,2013-02-13 20:52:00,
2013-02-13 14:01:00,27.0,17.0,-100.00,West,281,34.0,45.0,63,0.00,,,-99.99,,2013-02-13 21:01:00,
2013-02-13 14:11:00,27.0,18.0,-100.00,West,275,34.0,43.0,69,0.00,,,-99.99,,2013-02-13 21:11:00,
2013-02-13 14:21:00,27.0,18.0,-100.00,West,274,35.0,45.0,68,0.00,,,-99.99,,2013-02-13 21:21:00,
2013-02-13 14:31:00,27.0,16.0,-100.00,West,274,39.0,48.0,63,0.00,,,-99.99,,2013-02-13 21:31:00,
2013-02-13 14:42:00,27.0,17.0,-100.00,West,274,38.0,49.0,65,0.00,,,-99.99,,2013-02-13 21:42:00,
2013-02-13 14:52:00,27.0,17.0,-100.00,West,274,35.0,43.0,65,0.00,,,-99.99,,2013-02-13 21:52:00,
2013-02-13 15:02:00,27.0,18.0,-100.00,West,278,35.0,45.0,67,0.00,,,-99.99,,2013-02-13 22:02:00,
2013-02-13 15:11:00,27.0,17.0,-100.00,West,272,36.0,50.0,65,0.00,,,-99.99,,2013-02-13 22:11:00,
2013-02-13 15:21:00,27.0,18.0,-100.00,West,271,34.0,42.0,67,0.00,,,-99.99,,2013-02-13 22:21:00,
2013-02-13 15:31:00,27.0,17.0,-100.00,West,271,35.0,50.0,66,0.00,,,-99.99,,2013-02-13 22:31:00,
2013-02-13 15:42:00,27.0,18.0,-100.00,West,268,40.0,49.0,68,0.00,,,-99.99,,2013-02-13 22:42:00,
2013-02-13 15:51:00,27.0,18.0,-100.00,West,270,39.0,50.0,69,0.00,,,-99.99,,2013-02-13 22:51:00,
2013-02-13 16:01:00,27.0,19.0,-100.00,West,270,38.0,48.0,71,0.00,,,-99.99,,2013-02-13 23:01:00,
2013-02-13 16:11:00,26.0,18.0,-100.00,West,267,39.0,51.0,70,0.00,,,-99.99,,2013-02-13 23:11:00,
2013-02-13 16:21:00,27.0,18.0,-100.00,West,271,39.0,50.0,70,0.00,,,-99.99,,2013-02-13 23:21:00,
2013-02-13 16:32:00,27.0,17.0,-100.00,West,275,38.0,50.0,68,0.00,,,-99.99,,2013-02-13 23:32:00,
2013-02-13 16:41:00,27.0,17.0,-100.00,WNW,284,37.0,50.0,66,0.00,,,-99.99,,2013-02-13 23:41:00,
2013-02-13 16:52:00,27.0,17.0,-100.00,West,280,34.0,44.0,65,0.00,,,-99.99,,2013-02-13 23:52:00,
2013-02-13 17:02:00,27.0,16.0,-100.00,West,278,35.0,46.0,62,0.00,,,-99.99,,2013-02-14 00:02:00,
2013-02-13 17:11:00,27.0,17.0,-100.00,WNW,282,32.0,46.0,66,0.00,,,-99.99,,2013-02-14 00:11:00,
2013-02-13 17:21:00,26.0,17.0,-100.00,WNW,291,32.0,42.0,67,0.00,,,-99.99,,2013-02-14 00:21:00,
2013-02-13 17:32:00,26.0,16.0,-100.00,NW,305,28.0,36.0,66,0.00,,,-99.99,,2013-02-14 00:32:00,
2013-02-13 17:42:00,26.0,17.0,-100.00,NW,304,27.0,34.0,66,0.00,,,-99.99,,2013-02-14 00:42:00,
2013-02-13 17:51:00,27.0,16.0,-100.00,WNW,299,27.0,36.0,65,0.00,,,-99.99,,2013-02-14 00:51:00,
2013-02-13 18:01:00,26.0,16.0,-100.00,WNW,296,26.0,35.0,65,0.00,,,-99.99,,2013-02-14 01:01:00,
2013-02-13 18:11:00,26.0,17.0,-100.00,WNW,294,29.0,39.0,67,0.00,,,-99.99,,2013-02-14 01:11:00,
2013-02-13 18:21:00,26.0,17.0,-100.00,WNW,291,29.0,37.0,67,0.00,,,-99.99,,2013-02-14 01:21:00,
2013-02-13 18:31:00,26.0,17.0,-100.00,WNW,292,30.0,40.0,67,0.00,,,-99.99,,2013-02-14 01:31:00,
2013-02-13 18:41:00,26.0,17.0,-100.00,WNW,294,30.0,40.0,68,0.00,,,-99.99,,2013-02-14 01:41:00,
2013-02-13 18:51:00,26.0,17.0,-100.00,WNW,291,29.0,37.0,68,0.00,,,-99.99,,2013-02-14 01:51:00,
2013-02-13 19:01:00,26.0,17.0,-100.00,WNW,294,28.0,37.0,67,0.00,,,-99.99,,2013-02-14 02:01:00,
2013-02-13 19:11:00,26.0,17.0,-100.00,WNW,289,29.0,37.0,68,0.00,,,-99.99,,2013-02-14 02:11:00,
2013-02-13 19:21:00,26.0,17.0,-100.00,WNW,289,28.0,35.0,68,0.00,,,-99.99,,2013-02-14 02:21:00,
2013-02-13 19:31:00,26.0,17.0,-100.00,WNW,291,29.0,40.0,69,0.00,,,-99.99,,2013-02-14 02:31:00,
2013-02-13 19:41:00,26.0,17.0,-100.00,WNW,291,29.0,40.0,69,0.00,,,-99.99,,2013-02-14 02:41:00,
2013-02-13 19:51:00,26.0,17.0,-100.00,WNW,291,29.0,40.0,69,0.00,,,-99.99,,2013-02-14 02:51:00,
2013-02-13 20:02:00,26.0,17.0,-100.00,WNW,291,27.0,39.0,69,0.00,,,-99.99,,2013-02-14 03:02:00,
2013-02-13 20:11:00,26.0,17.0,-100.00,WNW,287,26.0,38.0,70,0.00,,,-99.99,,2013-02-14 03:11:00,
2013-02-13 20:21:00,26.0,17.0,-100.00,WNW,289,28.0,35.0,68,0.00,,,-99.99,,2013-02-14 03:21:00,
2013-02-13 20:31:00,26.0,17.0,-100.00,WNW,288,29.0,39.0,67,0.00,,,-99.99,,2013-02-14 03:31:00,
2013-02-13 20:42:00,26.0,17.0,-100.00,WNW,292,29.0,39.0,66,0.00,,,-99.99,,2013-02-14 03:42:00,
2013-02-13 20:51:00,27.0,16.0,-100.00,WNW,291,29.0,39.0,64,0.00,,,-99.99,,2013-02-14 03:51:00,
2013-02-13 21:01:00,27.0,16.0,-100.00,WNW,296,28.0,35.0,64,0.00,,,-99.99,,2013-02-14 04:01:00,
2013-02-13 21:11:00,27.0,16.0,-100.00,WNW,301,29.0,37.0,65,0.00,,,-99.99,,2013-02-14 04:11:00,
2013-02-13 21:21:00,26.0,16.0,-100.00,WNW,296,30.0,37.0,66,0.00,,,-99.99,,2013-02-14 04:21:00,
2013-02-13 21:31:00,26.0,16.0,-100.00,WNW,301,32.0,39.0,65,0.00,,,-99.99,,2013-02-14 04:31:00,
2013-02-13 21:41:00,26.0,17.0,-100.00,NW,304,31.0,38.0,67,0.00,,,-99.99,,2013-02-14 04:41:00,
2013-02-13 21:51:00,26.0,16.0,-100.00,NW,304,30.0,37.0,66,0.00,,,-99.99,,2013-02-14 04:51:00,
2013-02-13 22:02:00,27.0,16.0,-100.00,NW,306,31.0,38.0,63,0.00,,,-99.99,,2013-02-14 05:02:00,
2013-02-13 22:11:00,26.0,16.0,-100.00,NW,306,28.0,35.0,66,0.00,,,-99.99,,2013-02-14 05:11:00,
2013-02-13 22:21:00,26.0,16.0,-100.00,NW,305,29.0,37.0,67,0.00,,,-99.99,,2013-02-14 05:21:00,
2013-02-13 22:31:00,26.0,16.0,-100.00,NW,305,29.0,37.0,66,0.00,,,-99.99,,2013-02-14 05:31:00,
2013-02-13 22:41:00,26.0,16.0,-100.00,NW,305,29.0,40.0,65,0.00,,,-99.99,,2013-02-14 05:41:00,
2013-02-13 22:52:00,26.0,16.0,-100.00,NW,304,30.0,40.0,65,0.00,,,-99.99,,2013-02-14 05:52:00,
2013-02-13 23:02:00,26.0,16.0,-100.00,NW,305,31.0,39.0,65,0.00,,,-99.99,,2013-02-14 06:02:00,
2013-02-13 23:11:00,26.0,16.0,-100.00,NW,309,29.0,40.0,65,0.00,,,-99.99,,2013-02-14 06:11:00,
2013-02-13 23:21:00,26.0,15.0,-100.00,NW,309,30.0,42.0,63,0.00,,,-99.99,,2013-02-14 06:21:00,
2013-02-13 23:31:00,26.0,15.0,-100.00,NW,309,28.0,40.0,62,0.00,,,-99.99,,2013-02-14 06:31:00,
2013-02-13 23:41:00,26.0,15.0,-100.00,NW,312,26.0,33.0,64,0.00,,,-99.99,,2013-02-14 06:41:00,
2013-02-13 23:51:00,26.0,15.0,-100.00,NW,311,29.0,38.0,64,0.00,,,-99.99,,2013-02-14 06:51:00,